Time,TemperatureF,DewpointF,PressureIn,WindDirection,WindDirectionDegrees,WindSpeedMPH,WindSpeedGustMPH,Humidity,HourlyPrecipIn,Conditions,Clouds,dailyrainin,SoftwareType,DateUTC
2013-01-01 00:17:00,47.8,24.7,30.02,WSW,247,1.1,-999.0,40,-99.99,,,0.00,Acu-Link.com,2013-01-01 05:17:00,
2013-01-01 00:32:00,47.8,24.1,30.03,West,270,1.7,-999.0,39,-99.99,,,0.00,Acu-Link.com,2013-01-01 05:32:00,
2013-01-01 00:47:00,48.2,25.0,30.00,NE,45,0.0,-999.0,40,-99.99,,,0.00,Acu-Link.com,2013-01-01 05:47:00,
2013-01-01 01:02:00,48.2,25.0,29.98,South,180,1.1,-999.0,40,-99.99,,,0.00,Acu-Link.com,2013-01-01 06:02:00,
2013-01-01 01:18:00,48.2,25.0,29.97,ESE,112,2.2,-999.0,40,-99.99,,,0.00,Acu-Link.com,2013-01-01 06:18:00,
2013-01-01 01:33:00,48.4,24.6,29.99,NNE,22,1.1,-999.0,39,-99.99,,,0.00,Acu-Link.com,2013-01-01 06:33:00,
2013-01-01 01:48:00,48.6,24.8,29.97,SW,225,1.7,-999.0,39,-99.99,,,0.00,Acu-Link.com,2013-01-01 06:48:00,
2013-01-01 02:03:00,48.6,24.8,29.98,ESE,112,1.1,-999.0,39,-99.99,,,0.00,Acu-Link.com,2013-01-01 07:03:00,
2013-01-01 02:18:00,48.6,24.8,29.97,SW,225,1.7,-999.0,39,-99.99,,,0.00,Acu-Link.com,2013-01-01 07:18:00,
2013-01-01 02:33:00,48.6,25.4,29.97,SSW,202,0.0,-999.0,40,-99.99,,,0.00,Acu-Link.com,2013-01-01 07:33:00,
2013-01-01 02:48:00,48.6,26.0,29.99,West,270,1.7,-999.0,41,-99.99,,,0.00,Acu-Link.com,2013-01-01 07:48:00,
2013-01-01 03:03:00,48.7,25.5,29.98,SSW,202,2.7,-999.0,40,-99.99,,,0.00,Acu-Link.com,2013-01-01 08:03:00,
2013-01-01 03:18:00,49.1,26.4,29.98,WSW,247,1.7,-999.0,41,-99.99,,,0.00,Acu-Link.com,2013-01-01 08:18:00,
2013-01-01 03:34:00,48.9,27.4,29.99,ENE,67,1.7,-999.0,43,-99.99,,,0.00,Acu-Link.com,2013-01-01 08:34:00,
2013-01-01 03:49:00,48.9,29.0,29.97,South,180,2.2,-999.0,46,-99.99,,,0.00,Acu-Link.com,2013-01-01 08:49:00,
2013-01-01 04:07:00,49.3,29.4,29.97,SW,225,1.1,-999.0,46,-99.99,,,0.00,Acu-Link.com,2013-01-01 09:07:00,
2013-01-01 04:22:00,49.3,28.9,29.96,South,180,1.1,-999.0,45,-99.99,,,0.00,Acu-Link.com,2013-01-01 09:22:00,
2013-01-01 04:37:00,48.7,28.3,29.96,SSE,157,1.7,-999.0,45,-99.99,,,0.00,Acu-Link.com,2013-01-01 09:37:00,
2013-01-01 04:52:00,48.2,28.4,29.97,WSW,247,2.2,-999.0,46,-99.99,,,0.00,Acu-Link.com,2013-01-01 09:52:00,
2013-01-01 05:07:00,48.2,28.4,29.97,West,270,1.7,-999.0,46,-99.99,,,0.00,Acu-Link.com,2013-01-01 10:07:00,
2013-01-01 05:22:00,48.0,28.7,29.96,West,270,2.7,-999.0,47,-99.99,,,0.00,Acu-Link.com,2013-01-01 10:22:00,
2013-01-01 05:38:00,48.0,28.7,29.96,NW,315,1.1,-999.0,47,-99.99,,,0.00,Acu-Link.com,2013-01-01 10:38:00,
2013-01-01 05:53:00,48.0,28.7,29.96,ESE,112,0.0,-999.0,47,-99.99,,,0.00,Acu-Link.com,2013-01-01 10:53:00,
2013-01-01 06:08:00,48.0,29.3,29.95,NE,45,0.0,-999.0,48,-99.99,,,0.00,Acu-Link.com,2013-01-01 11:08:00,
2013-01-01 06:23:00,48.0,30.3,29.96,SE,135,1.7,-999.0,50,-99.99,,,0.00,Acu-Link.com,2013-01-01 11:23:00,
2013-01-01 06:38:00,48.2,30.9,29.97,SW,225,2.2,-999.0,51,-99.99,,,0.00,Acu-Link.com,2013-01-01 11:38:00,
2013-01-01 06:53:00,48.6,31.3,29.98,ESE,112,1.1,-999.0,51,-99.99,,,0.00,Acu-Link.com,2013-01-01 11:53:00,
2013-01-01 07:08:00,48.7,31.9,29.98,South,180,0.0,-999.0,52,-99.99,,,0.00,Acu-Link.com,2013-01-01 12:08:00,
2013-01-01 07:24:00,49.3,33.8,29.99,SW,225,1.7,-999.0,55,-99.99,,,0.00,Acu-Link.com,2013-01-01 12:24:00,
2013-01-01 07:39:00,49.6,35.0,30.00,ESE,112,1.1,-999.0,57,-99.99,,,0.00,Acu-Link.com,2013-01-01 12:39:00,
2013-01-01 07:54:00,50.0,36.7,30.00,West,270,2.7,-999.0,60,-99.99,,,0.00,Acu-Link.com,2013-01-01 12:54:00,
2013-01-01 08:09:00,50.4,37.0,30.01,WNW,292,1.1,-999.0,60,-99.99,,,0.00,Acu-Link.com,2013-01-01 13:09:00,
2013-01-01 08:24:00,50.4,37.0,30.01,West,270,2.2,-999.0,60,-99.99,,,0.00,Acu-Link.com,2013-01-01 13:24:00,
2013-01-01 08:39:00,50.5,38.0,30.00,WNW,292,0.0,-999.0,62,-99.99,,,0.00,Acu-Link.com,2013-01-01 13:39:00,
2013-01-01 08:54:00,49.8,37.7,30.00,SSW,202,1.1,-999.0,63,-99.99,,,0.00,Acu-Link.com,2013-01-01 13:54:00,
2013-01-01 09:09:00,49.3,37.2,30.00,SW,225,0.0,-999.0,63,-99.99,,,0.00,Acu-Link.com,2013-01-01 14:09:00,
2013-01-01 09:24:00,48.2,40.0,30.00,SSW,202,0.0,-999.0,73,-99.99,,,0.00,Acu-Link.com,2013-01-01 14:24:00,
2013-01-01 09:40:00,47.7,40.5,30.00,West,270,0.0,-999.0,76,-99.99,,,0.01,Acu-Link.com,2013-01-01 14:40:00,
2013-01-01 09:55:00,47.3,40.8,30.00,West,270,0.0,-999.0,78,-99.99,,,0.06,Acu-Link.com,2013-01-01 14:55:00,
2013-01-01 10:10:00,46.9,40.7,29.99,ESE,112,0.0,-999.0,79,-99.99,,,0.08,Acu-Link.com,2013-01-01 15:10:00,
2013-01-01 10:25:00,46.9,41.1,30.01,NE,45,0.0,-999.0,80,-99.99,,,0.09,Acu-Link.com,2013-01-01 15:25:00,
2013-01-01 10:40:00,47.3,41.8,30.01,WSW,247,0.0,-999.0,81,-99.99,,,0.09,Acu-Link.com,2013-01-01 15:40:00,
2013-01-01 10:55:00,47.8,41.9,30.01,North,0,0.0,-999.0,80,-99.99,,,0.10,Acu-Link.com,2013-01-01 15:55:00,
2013-01-01 11:10:00,48.4,42.5,30.00,South,180,1.1,-999.0,80,-99.99,,,0.10,Acu-Link.com,2013-01-01 16:10:00,
2013-01-01 11:25:00,49.1,43.2,29.98,SW,225,1.7,-999.0,80,-99.99,,,0.10,Acu-Link.com,2013-01-01 16:25:00,
2013-01-01 11:40:00,49.5,43.6,29.99,West,270,0.0,-999.0,80,-99.99,,,0.10,Acu-Link.com,2013-01-01 16:40:00,
2013-01-01 11:56:00,50.0,44.4,29.97,West,270,0.0,-999.0,81,-99.99,,,0.10,Acu-Link.com,2013-01-01 16:56:00,
2013-01-01 12:11:00,50.0,44.4,29.96,West,270,0.0,-999.0,81,-99.99,,,0.10,Acu-Link.com,2013-01-01 17:11:00,
2013-01-01 12:26:00,50.2,44.6,29.96,SW,225,0.0,-999.0,81,-99.99,,,0.10,Acu-Link.com,2013-01-01 17:26:00,
2013-01-01 12:41:00,50.0,44.4,29.95,SSW,202,0.0,-999.0,81,-99.99,,,0.10,Acu-Link.com,2013-01-01 17:41:00,
2013-01-01 12:56:00,50.0,44.4,29.93,SSW,202,0.0,-999.0,81,-99.99,,,0.10,Acu-Link.com,2013-01-01 17:56:00,
2013-01-01 13:11:00,50.0,44.4,29.92,South,180,0.0,-999.0,81,-99.99,,,0.11,Acu-Link.com,2013-01-01 18:11:00,
2013-01-01 13:26:00,50.0,44.7,29.93,SW,225,0.0,-999.0,82,-99.99,,,0.12,Acu-Link.com,2013-01-01 18:26:00,
2013-01-01 13:41:00,50.0,44.7,29.93,SW,225,0.0,-999.0,82,-99.99,,,0.12,Acu-Link.com,2013-01-01 18:41:00,
2013-01-01 13:56:00,50.0,45.0,29.91,South,180,0.0,-999.0,83,-99.99,,,0.14,Acu-Link.com,2013-01-01 18:56:00,
2013-01-01 14:12:00,50.2,45.2,29.92,West,270,0.0,-999.0,83,-99.99,,,0.15,Acu-Link.com,2013-01-01 19:12:00,
2013-01-01 14:27:00,50.2,45.2,29.91,South,180,0.0,-999.0,83,-99.99,,,0.16,Acu-Link.com,2013-01-01 19:27:00,
2013-01-01 14:42:00,50.2,45.2,29.89,SW,225,0.0,-999.0,83,-99.99,,,0.17,Acu-Link.com,2013-01-01 19:42:00,
2013-01-01 14:57:00,50.2,45.6,29.87,SSW,202,1.7,-999.0,84,-99.99,,,0.18,Acu-Link.com,2013-01-01 19:57:00,
2013-01-01 15:12:00,50.2,45.6,29.88,SSW,202,0.0,-999.0,84,-99.99,,,0.18,Acu-Link.com,2013-01-01 20:12:00,
2013-01-01 15:27:00,50.2,45.6,29.88,West,270,0.0,-999.0,84,-99.99,,,0.19,Acu-Link.com,2013-01-01 20:27:00,
2013-01-01 15:42:00,50.2,45.6,29.90,NW,315,0.0,-999.0,84,-99.99,,,0.19,Acu-Link.com,2013-01-01 20:42:00,
2013-01-01 15:58:00,50.2,45.6,29.89,West,270,0.0,-999.0,84,-99.99,,,0.20,Acu-Link.com,2013-01-01 20:58:00,
2013-01-01 16:13:00,50.4,46.1,29.88,SW,225,1.7,-999.0,85,-99.99,,,0.20,Acu-Link.com,2013-01-01 21:13:00,
2013-01-01 16:28:00,50.4,46.1,29.88,SSW,202,1.7,-999.0,85,-99.99,,,0.22,Acu-Link.com,2013-01-01 21:28:00,
2013-01-01 16:43:00,50.4,46.1,29.89,West,270,1.1,-999.0,85,-99.99,,,0.25,Acu-Link.com,2013-01-01 21:43:00,
2013-01-01 17:00:00,50.4,46.1,29.89,SSE,157,0.0,-999.0,85,-99.99,,,0.26,Acu-Link.com,2013-01-01 22:00:00,
2013-01-01 17:15:00,50.4,46.1,29.90,West,270,0.0,-999.0,85,-99.99,,,0.27,Acu-Link.com,2013-01-01 22:15:00,
2013-01-01 17:30:00,50.4,46.1,29.90,West,270,0.0,-999.0,85,-99.99,,,0.27,Acu-Link.com,2013-01-01 22:30:00,
2013-01-01 17:46:00,50.4,46.1,29.89,SSE,157,0.0,-999.0,85,-99.99,,,0.28,Acu-Link.com,2013-01-01 22:46:00,
2013-01-01 18:01:00,50.4,46.1,29.88,West,270,0.0,-999.0,85,-99.99,,,0.28,Acu-Link.com,2013-01-01 23:01:00,
2013-01-01 18:16:00,50.2,45.9,29.86,NE,45,0.0,-999.0,85,-99.99,,,0.28,Acu-Link.com,2013-01-01 23:16:00,
2013-01-01 18:31:00,50.2,45.9,29.87,WSW,247,0.0,-999.0,85,-99.99,,,0.28,Acu-Link.com,2013-01-01 23:31:00,
2013-01-01 18:46:00,50.2,45.9,29.86,ESE,112,0.0,-999.0,85,-99.99,,,0.29,Acu-Link.com,2013-01-01 23:46:00,
2013-01-01 19:01:00,50.0,45.7,29.87,West,270,0.0,-999.0,85,-99.99,,,0.29,Acu-Link.com,2013-01-02 00:01:00,
2013-01-01 19:16:00,50.0,46.0,29.87,West,270,0.0,-999.0,86,-99.99,,,0.29,Acu-Link.com,2013-01-02 00:16:00,
2013-01-01 19:31:00,50.0,46.0,29.90,WNW,292,0.0,-999.0,86,-99.99,,,0.29,Acu-Link.com,2013-01-02 00:31:00,
2013-01-01 19:46:00,50.0,46.0,29.90,South,180,0.0,-999.0,86,-99.99,,,0.30,Acu-Link.com,2013-01-02 00:46:00,
2013-01-01 20:01:00,50.0,46.0,29.89,West,270,0.0,-999.0,86,-99.99,,,0.31,Acu-Link.com,2013-01-02 01:01:00,
2013-01-01 20:17:00,49.8,45.8,29.87,NE,45,0.0,-999.0,86,-99.99,,,0.32,Acu-Link.com,2013-01-02 01:17:00,
2013-01-01 20:32:00,49.6,45.6,29.86,WNW,292,0.0,-999.0,86,-99.99,,,0.33,Acu-Link.com,2013-01-02 01:32:00,
2013-01-01 20:47:00,49.6,45.6,29.87,West,270,0.0,-999.0,86,-99.99,,,0.34,Acu-Link.com,2013-01-02 01:47:00,
2013-01-01 21:02:00,49.5,45.5,29.87,West,270,0.0,-999.0,86,-99.99,,,0.35,Acu-Link.com,2013-01-02 02:02:00,
2013-01-01 21:17:00,49.5,45.5,29.87,West,270,0.0,-999.0,86,-99.99,,,0.35,Acu-Link.com,2013-01-02 02:17:00,
2013-01-01 21:32:00,49.5,45.5,29.86,WNW,292,0.0,-999.0,86,-99.99,,,0.36,Acu-Link.com,2013-01-02 02:32:00,
2013-01-01 21:48:00,49.5,45.5,29.87,West,270,0.0,-999.0,86,-99.99,,,0.36,Acu-Link.com,2013-01-02 02:48:00,
2013-01-01 22:03:00,49.3,45.3,29.85,East,90,0.0,-999.0,86,-99.99,,,0.42,Acu-Link.com,2013-01-02 03:03:00,
2013-01-01 22:18:00,49.3,45.3,29.85,West,270,0.0,-999.0,86,-99.99,,,0.43,Acu-Link.com,2013-01-02 03:18:00,
2013-01-01 22:33:00,49.3,45.3,29.85,West,270,0.0,-999.0,86,-99.99,,,0.43,Acu-Link.com,2013-01-02 03:33:00,
2013-01-01 22:48:00,49.3,45.3,29.86,East,90,0.0,-999.0,86,-99.99,,,0.44,Acu-Link.com,2013-01-02 03:48:00,
2013-01-01 23:03:00,49.3,45.3,29.85,West,270,0.0,-999.0,86,-99.99,,,0.46,Acu-Link.com,2013-01-02 04:03:00,
2013-01-01 23:18:00,49.3,45.3,29.85,West,270,0.0,-999.0,86,-99.99,,,0.48,Acu-Link.com,2013-01-02 04:18:00,
2013-01-01 23:33:00,49.3,45.3,29.85,NE,45,0.0,-999.0,86,-99.99,,,0.51,Acu-Link.com,2013-01-02 04:33:00,
2013-01-01 23:48:00,49.3,45.3,29.84,NE,45,0.0,-999.0,86,-99.99,,,0.55,Acu-Link.com,2013-01-02 04:48:00,